ONEWEB-0069 (45430 NORAD) Tracking and Keplerian Element Data

This shows tracking and keplerian element data for the satellite.

Feedback or suggestion? Click here.




ElementValue
Catalog45430
NameONEWEB-0069
Epoch Orbit97
Epoch Day88.14905567
Epoch Year2020
RAAN136.6269
Inclination87.3989
Eccentricity0.0024459
Argument of Perigee283.7363
Mean Anonmoly76.1169
Mean Motion15.37818482
Decay Rate2.113E-05
L11 45430U 20020G 20088.14905567 .00002113 00000-0 55176-4 0 9990
L22 45430 87.3989 136.6269 0024459 283.7363 76.1169 15.37818482 974

Live tracking and technical data element details for ONEWEB-0069 (NORAD 45430). ONEWEB-0069 can be tracked NOW for your location showing map with azimuth and elevation plus other details from your city location.

Track the satellite on the map from your city or location and see movement details for azimuth, elevation, latitude, longitude, range, height, and movement on the map or in text.







IsCatalogInMostPopularTable: catalog: 45430, numindb: 1
Update: records affected: 1



GetName: 45430 ONEWEB-0069

Hit Count: updated at: Tue, 31 Mar 2020 13:44:39 GMT